sat.trackr.live / text

‹ back to catalog

STARLINK-4499

NORAD 53402 · 2022-097Q

PAYLOAD ACTIVE UNKNOWN

§ Identity

Operator
Country
US
Launch date
2022-08-10
Launch site
AFETR
Launch vehicle
Mass (kg)
RCS (m²)

Purposes: comms

External: N2YO · Heavens-Above · Gunter

§ Orbital elements

Epoch: 2026-09-20T04:22:32.168064Z

Period
93.85 min
Inclination
53.1642°
Eccentricity
0.0001187
Mean motion
15.34385337 rev/d
Perigee alt
461.9 km
Apogee alt
463.6 km
Semi-major
6,840.9 km
B*
1.1091e-7
RAAN
319.5253°
Arg perigee
88.0240°
Mean anomaly
272.0899°
Rev number
22,803

§ Raw data

STARLINK-44991 53402U 22097Q   26263.18231676 -.00000372  00000+0  11091-6 0  99972 53402  53.1642 319.5253 0001187  88.0240 272.0899 15.34385337228038

JSON: /api/v1/satellites/53402 · /tle

For live sub-satellite position, see the globe view (requires WebGL).

§ Visibility from observer

Set your observer location to see the next 7 days of passes ≥ 10°. The values pass through the URL so the page stays shareable.

No JS? Fill the form by hand. The geolocation button needs JavaScript.